Simultaneous Nadir Overpasses (SNOs) Predictions

Prediction of SNOs between NOAA-21 and NOAA-19 Satellite Orbit:

Table of predicted SNOs for the next 14.0 days since TLE Epoch: 7/15/2024
Index Date (NOAA-21) Time (NOAA-21) Lat,Lon (NOAA-21) SZA (NOAA-21 ) Date (NOAA-19) Time (NOAA-19) Lat,Lon (NOAA-19) SZA (NOAA-19 ) Distance(km) Time Diff (sec)
1 07/17/2024 21:53:12 72.63,-156.37 51.84 07/17/2024 21:52:01 72.60,-157.82 51.93 48.15 71
2 07/17/2024 22:44:03 -72.98, 10.20 127.77 07/17/2024 22:42:48 -72.99, 10.30 127.75 3.23 75
3 07/17/2024 23:34:49 72.99, 177.50 52.25 07/17/2024 23:33:51 73.00, 177.55 52.27 1.81 58
4 07/18/2024 00:25:33 -72.98, -15.18 127.76 07/18/2024 00:24:46 -72.98, -15.21 127.74 1.01 47
5 07/18/2024 01:16:19 72.99, 152.12 52.26 07/18/2024 01:15:49 72.99, 152.04 52.27 2.52 30
6 07/18/2024 02:07:04 -73.04, -40.67 127.68 07/18/2024 02:06:43 -73.03, -40.60 127.69 2.41 21
7 07/18/2024 02:57:50 73.04, 126.63 52.33 07/18/2024 02:57:46 73.03, 126.65 52.32 1.48 4
8 07/18/2024 03:48:34 -73.04, -66.05 127.67 07/18/2024 03:48:41 -73.02, -66.11 127.69 3.05 7
9 07/18/2024 04:39:20 73.05, 101.25 52.35 07/18/2024 04:39:43 73.07, 101.26 52.37 3.05 23
10 07/18/2024 05:30:04 -73.04, -91.43 127.65 07/18/2024 05:30:38 -73.06, -91.50 127.64 3.11 34
11 07/18/2024 06:20:51 73.10, 75.76 52.42 07/18/2024 06:21:41 73.07, 75.75 52.38 3.69 50
12 07/18/2024 07:11:35 -73.10,-116.92 127.58 07/18/2024 07:12:35 -73.10,-116.89 127.59 1.12 60
13 07/18/2024 08:02:23 73.20, 50.16 52.55 07/18/2024 08:03:37 73.16, 50.47 52.47 11.32 74
14 07/18/2024 08:53:15 -73.60,-143.42 127.01 07/18/2024 08:54:24 -73.54,-141.36 127.21 65.11 69



Historial Predications of SNOs between NOAA-21 and NOAA-19
